Regional Weather Roundup
Issued by NWS

Home | Current Version | Previous Version | Graphics & Text | Print | Product List | Glossary On
Versions: 1 2 3 4 5 6 7 8 9 10 11 12 13 14 15 16 17 18 19 20 21 22 23 24 25 26 27 28 29 30 31 32 33 34 35 36 37 38 39 40 41 42 43 44 45 46 47 48 49 50
000
ASUS43 KLOT 260203
RWRIL

ILLINOIS REGIONAL WEATHER ROUNDUP
NATIONAL WEATHER SERVICE CHICAGO/ROMEOVILLE IL
900 PM CDT WED APR 25 2018

NOTE: "FAIR" INDICATES FEW OR NO CLOUDS BELOW 12,000 FEET WITH NO
SIGNIFICANT WEATHER AND/OR OBSTRUCTIONS TO VISIBILITY.

* THESE STATIONS ARE NOT UNDER NWS QUALITY CONTROL. THEY ALSO MAY NOT
  REPORT WEATHER SUCH AS PRECIPITATION OR FOG.

ILZ001-002-007-009-015-016-024-260300-
NORTHWEST ILLINOIS

CITY           SKY/WX    TMP DP  RH WIND       PRES   REMARKS
MOLINE         FAIR      58  29  33 CALM      29.98S
STERLING*      FAIR      52  30  43 CALM      30.00S
SAVANNA*       FAIR      53  31  42 CALM      30.00S
$$

ILZ003-004-008-010-011-017-018-260300-
NORTH CENTRAL ILLINOIS

CITY           SKY/WX    TMP DP  RH WIND       PRES   REMARKS
ROCKFORD       FAIR      48  32  53 E8        30.03R
FREEPORT*      FAIR      47  28  47 CALM      30.02S
ROCHELLE*      FAIR      46  32  59 E12       30.02R
DE KALB*       FAIR      40  31  68 E7        30.04R
PERU*          FAIR      53  35  50 E12       30.02R
$$

ILZ005-006-012>014-019>023-260300-
NORTHEAST ILLINOIS

CITY           SKY/WX    TMP DP  RH WIND       PRES   REMARKS
CHICAGO-OHARE  FAIR      42  29  59 NE9       30.04S
CHICAGO-MIDWAY FAIR      42  31  64 NE7       30.05R
AURORA         FAIR      43  31  62 E12       30.03R
LANSING*       FAIR      39  34  83 N6        30.04S WCI  35
JOLIET*        FAIR      45  31  59 NE8       30.03S
WAUKEGAN       FAIR      35  29  78 CALM      30.04S
DUPAGE AIRPORT FAIR      40  30  67 NE7       30.04R
KANKAKEE*      FAIR      42  30  62 NE10      30.04S
WHEELING       FAIR      40  30  67 CALM      30.06S
MORRIS*        FAIR      44  31  62 E6        30.02S
ROMEOVILLE*    FAIR      42  31  66 E8        30.04S
NORTHERLY ISL    N/A     38  32  79 NW5         N/A  WCI  34
$$

LMZ740>746-260300-
SOUTHERN LAKE MICHIGAN

STATION/POSITION SKY/WX   TEMP    WIND        PRES    VSBY  WAVE
                          AIR SEA DIR/SP/G                  HT/PER
                          (F)     (DEG/KT/KT) (MB)    (MI)  (FT/S)
HARRISON CRIB              39     330/  5/  5   N/A
BURNHAM HARBOR             38     350/  4/  7   N/A
CALUMET HARBOR             38     340/  4/  5 1017.1S
BURNS HARBOR               39     330/  4/  6 1017.9S
MICHIGAN CITY              38     310/  9/ 11   N/A
ST. JOSEPH                 40 42  230/  4/  8 1017.6F         4/ 6
$$

ILZ025>027-034>036-040-047-049-050-058-095>099-260300-
WEST-CENTRAL ILLINOIS

CITY           SKY/WX    TMP DP  RH WIND       PRES   REMARKS
QUINCY         CLOUDY    54  39  57 N5        30.00R
GALESBURG*     FAIR      55  34  44 CALM      30.00S
MACOMB*        CLOUDY    50  34  53 CALM      30.01S
JACKSONVILLE*  CLOUDY    54  40  59 N5        29.98S
PITTSFIELD*    CLOUDY    55  42  60 N6        30.00S
$$

ILZ028>032-037-038-041>044-048-051>054-059>061-260300-
CENTRAL ILLINOIS

CITY           SKY/WX    TMP DP  RH WIND       PRES   REMARKS
PONTIAC        FAIR      46  34  62 NE10      30.02R
BLOOMINGTON    FAIR      49  37  63 E8        30.00R
DECATUR        FAIR      49  40  71 E8        29.98R
PEORIA         FAIR      58  30  34 N7        29.98S
LACON*         FAIR      49  30  49 CALM      29.98S
LINCOLN*       FAIR      55  40  56 CALM      29.98S
SPRINGFIELD    FAIR      57  40  52 N6        29.98S
TAYLORVILLE    FAIR      57  40  53 NE6       29.98R
$$

ILZ033-039-045-046-055>057-062-063-260300-
EAST-CENTRAL ILLINOIS

CITY           SKY/WX    TMP DP  RH WIND       PRES   REMARKS
CHAMPAIGN      FAIR      50  34  54 E10       29.99R
DANVILLE*      FAIR      46  32  57 NE3       29.98R
RANTOUL*       FAIR      48  37  67 E7        30.00R
MATTOON        FAIR      54  39  57 NE9       29.97R
PARIS*         FAIR      51  34  52 NE8       30.00S
$$

ILZ079-100>102-260300-
SOUTHWEST ILLINOIS

CITY           SKY/WX    TMP DP  RH WIND       PRES   REMARKS
ALTON          CLOUDY    57  46  67 W5        29.96S
BELLEVILLE     DRIZZLE   57  54  92 SW7       29.96R
CAHOKIA*       LGT RAIN  58  54  86 SW6       29.96R
SPARTA*        LGT RAIN  55  55 100 N7        29.98R
$$

ILZ064>066-069>071-074>076-080>082-084>086-088>090-092>094-260300-
SOUTH-CENTRAL ILLINOIS

CITY           SKY/WX    TMP DP  RH WIND       PRES   REMARKS
CARBONDALE     LGT RAIN  56  54  93 N8        29.96R FOG
CAIRO*         CLOUDY    60  53  76 SE3       29.94S
EFFINGHAM*     FAIR      59  42  53 N7        29.98R
MARION         RAIN      55  55  99 W3        29.98R
MT. VERNON     MOCLDY    58  55  90 CALM      29.96R
CENTRALIA*     CLOUDY    62  54  76 CALM      29.95S
SALEM*         CLOUDY    62  48  60 CALM      29.95S
METROPOLIS*    LGT RAIN  58  55  89 S7        29.96S
$$

ILZ067-068-072-073-078-083-087-091-260300-
SOUTHEAST ILLINOIS

CITY           SKY/WX    TMP DP  RH WIND       PRES   REMARKS
LAWRENCEVILLE  FAIR      61  47  59 MISG      29.95R
FLORA*         MOCLDY    61  50  68 N3        29.96R
FAIRFIELD*     CLOUDY    60  51  71 N3        29.94R
HARRISBURG*    LGT RAIN  58  56  93 CALM      29.96R
ROBINSON*      FAIR      57  42  56 N9        29.96S
CARMI*         CLOUDY    60  55  82 NE5       29.93S
$$

ABBREVIATIONS USED IN REMARKS
   TC - TEMPERATURE IN CELSIUS
  WCI - WIND CHILL INDEX
   HX - HEAT INDEX
  VSB - VISIBILITY
$$




USA.gov is the U.S. government's official web portal to all federal, state and local government web resources and services.